User: anonymous   Login
Location: San Antonio
(29.4240°N, 98.4930°W)
Time: 02:41:49
(UTC-05:00)
Language:

Tiros 1 despin weight - Orbit

View from above orbital plane
View from above orbital plane
View from above satellite
View from above satellite

Ground track
Ground track

The orbit data is extracted from the following two-line orbital elements,

1 00115U 60002D   24196.66313873  .00004900  00000-0  52316-3 0  9997
2 00115  48.1644 299.0989 0031471 343.6207  16.3689 14.89864981413035
Epoch (UTC): 14 July 2024 15:54:55
Eccentricity: 0.0031471
inclination: 48.1644°
perigee height: 576 km
apogee height: 620 km
right ascension of ascending node: 299.0989°
argument of perigee: 343.6207°
revolutions per day: 14.89864981
mean anomaly at epoch: 16.3689°
orbit number at epoch: 41303

The dashed part of the orbit path shows where the satellite is in the earth's shadow,  

DLR